This is the latest recevied weather packets stored in our database for station/object KA7EII-13. If no packets are shown the sender has not sent any weather packets the latest 10 day(s).
| Time | Temp. | Humidity | Pressure | Rain* | Wind** | Luminosity | Snow |
|---|---|---|---|---|---|---|---|
| 1777954032 | 16.67° C | 34% | 1096.8 hPa | 0 mm | - | 0 W/m² | - |
| 1777953729 | 17.22° C | 34% | 1096.8 hPa | 0 mm | - | 0 W/m² | - |
| 1777953426 | 17.22° C | 33% | 1097 hPa | 0 mm | - | 0 W/m² | - |
| 1777953122 | 17.22° C | 33% | 1096.7 hPa | 0 mm | - | 0 W/m² | - |
| 1777952819 | 17.78° C | 34% | 1096.7 hPa | 0 mm | - | 0 W/m² | - |
| 1777952516 | 17.22° C | 34% | 1096.9 hPa | 0 mm | - | 0 W/m² | - |
| 1777952212 | 17.22° C | 33% | 1096.7 hPa | 0 mm | - | 0 W/m² | - |
| 1777951910 | 17.22° C | 33% | 1096.6 hPa | 0 mm | - | 0 W/m² | - |
| 1777951608 | 17.22° C | 33% | 1096.6 hPa | 0 mm | - | 0 W/m² | - |
| 1777951304 | 17.22° C | 34% | 1096.6 hPa | 0 mm | - | 0 W/m² | - |
| 1777951002 | 17.78° C | 33% | 1096.5 hPa | 0 mm | - | 0 W/m² | - |
| 1777950698 | 17.78° C | 35% | 1096.3 hPa | 0 mm | - | 0 W/m² | - |
| 1777950395 | 17.78° C | 37% | 1096.5 hPa | 0 mm | - | 0 W/m² | - |
| 1777950090 | 18.33° C | 38% | 1096.3 hPa | 0 mm | - | 0 W/m² | - |
| 1777949787 | 17.78° C | 36% | 1096.2 hPa | 0 mm | - | 0 W/m² | - |
| 1777949486 | 16.67° C | 43% | 1096.2 hPa | 0 mm | - | 0 W/m² | - |
| 1777949183 | 16.67° C | 45% | 1096 hPa | 0 mm | - | 0 W/m² | - |
| 1777948880 | 16.67° C | 45% | 1095.7 hPa | 0 mm | - | 0 W/m² | - |
| 1777948577 | 17.22° C | 47% | 1095.5 hPa | 0 mm | - | 0 W/m² | - |
| 1777948275 | 17.22° C | 43% | 1095.4 hPa | 0 mm | - | 1 W/m² | - |
| 1777947972 | 17.78° C | 43% | 1095.4 hPa | 0 mm | - | 2 W/m² | - |
| 1777947669 | 17.78° C | 42% | 1095.3 hPa | 0 mm | - | 4 W/m² | - |
| 1777947365 | 17.78° C | 42% | 1095.5 hPa | 0 mm | - | 6 W/m² | - |
| 1777947062 | 18.33° C | 42% | 1095.4 hPa | 0 mm | - | 9 W/m² | - |
| 1777946762 | 18.33° C | 40% | 1095.7 hPa | 0 mm | - | 13 W/m² | - |
* Rain latest hour (hover to see other rain measurements)
** Current wind speed in m/s (hover to see current wind gust speed)